This is the latest recevied weather packets stored in our database for station/object DB0FN-10. If no packets are shown the sender has not sent any weather packets the latest 10 day(s).
| Time | Temp. | Humidity | Pressure | Rain* | Wind** | Luminosity | Snow |
|---|---|---|---|---|---|---|---|
| 1777491052 | 16.11° C | 29% | 1023.6 hPa | - | - | - | - |
| 1777490152 | 16.11° C | 30% | 1023.8 hPa | - | - | - | - |
| 1777489252 | 16.67° C | 30% | 1023.4 hPa | - | - | - | - |
| 1777488352 | 17.22° C | 29% | 1023.3 hPa | - | - | - | - |
| 1777487452 | 17.78° C | 27% | 1023.3 hPa | - | - | - | - |
| 1777486552 | 18.33° C | 27% | 1023.2 hPa | - | - | - | - |
| 1777485652 | 18.33° C | 27% | 1022.9 hPa | - | - | - | - |
| 1777484752 | 18.33° C | 28% | 1022.8 hPa | - | - | - | - |
| 1777483852 | 18.33° C | 28% | 1022.7 hPa | - | - | - | - |
| 1777482951 | 18.33° C | 28% | 1022.7 hPa | - | - | - | - |
| 1777482052 | 18.89° C | 27% | 1022.7 hPa | - | - | - | - |
| 1777481151 | 18.89° C | 27% | 1022.8 hPa | - | - | - | - |
| 1777480251 | 18.89° C | 26% | 1022.6 hPa | - | - | - | - |
| 1777479351 | 18.89° C | 27% | 1022.5 hPa | - | - | - | - |
| 1777478451 | 19.44° C | 28% | 1022.6 hPa | - | - | - | - |
| 1777477551 | 18.89° C | 28% | 1022.6 hPa | - | - | - | - |
| 1777476651 | 19.44° C | 27% | 1022.6 hPa | - | - | - | - |
| 1777475751 | 20° C | 26% | 1022.5 hPa | - | - | - | - |
| 1777474851 | 18.89° C | 28% | 1022.5 hPa | - | - | - | - |
| 1777473951 | 18.89° C | 28% | 1022.4 hPa | - | - | - | - |
| 1777473051 | 18.89° C | 29% | 1022.5 hPa | - | - | - | - |
| 1777472151 | 19.44° C | 29% | 1022.5 hPa | - | - | - | - |
| 1777471251 | 20° C | 29% | 1022.5 hPa | - | - | - | - |
| 1777470351 | 20° C | 29% | 1022.5 hPa | - | - | - | - |
| 1777469451 | 18.89° C | 31% | 1022.4 hPa | - | - | - | - |
* Rain since midnight (hover to see other rain measurements)
** Current wind speed in m/s (hover to see current wind gust speed)